Temperature
14 14 14 14 14 14 14 14 15 14 15 15 15 15 15 15 15 15 16 16 16 16 16 16 16 16 16 16 16 16 16 16 16 16 16 16 16 16
14 14 14 14 14 14 14 14 14 15 15 14 14 15 15 15 15 15 15 15 16 16 16 16 16 16 16 16 16 16 16 16 16 16 16 16 16 16
14 14 14 14 14 14 14 14 14 14 14 14 14 14 14 14 15 15 15 15 15 15 15 15 15 16 16 16 16 16 16 16 16 16 16 16 16 16
14 14 14 14 14 14 14 14 14 14 14 14 14 14 14 14 14 14 14 15 15 15 15 15 15 15 15 15 15 15 15 15 15 15 15 15 15 15
14 14 14 14 14 14 14 14 14 14 14 14 14 14 14 14 14 14 14 14 14 14 15 15 15 15 15 15 15 15 15 15 15 15 15 15 15 15
15 15 14 14 14 14 14 14 14 14 14 14 14 13 14 14 14 14 14 14 14 14 14 14 14 14 14 14 15 15 15 15 15 15 15 15 15 15
15 15 15 14 14 14 14 14 14 13 13 13 13 13 13 13 13 13 13 13 13 13 14 14 14 14 14 14 14 14 14 14 14 14 14 14 14 14
15 15 15 14 14 14 14 14 14 13 13 13 13 13 13 13 13 13 13 13 13 13 13 13 13 13 13 13 13 14 14 14 14 14 14 14 14 14
15 15 15 15 14 14 14 14 14 14 13 13 13 13 13 13 13 13 13 13 13 13 13 13 13 13 13 13 13 13 13 13 13 13 13 13 13 13
14 14 14 14 14 14 14 14 14 13 13 13 13 13 13 13 13 13 13 13 13 13 13 13 12 12 12 12 13 13 13 13 13 13 13 13 13 13
14 14 14 14 14 14 14 13 13 13 13 13 13 13 13 13 13 13 13 12 12 12 12 12 12 12 12 12 12 12 12 12 12 12 12 12 12 12
13 14 14 14 14 14 14 13 13 13 13 13 13 13 13 13 13 12 12 12 12 12 12 12 12 12 12 12 12 12 12 12 12 12 12 12 12 12
13 13 13 14 14 14 14 13 13 13 13 13 13 13 13 13 13 12 12 12 12 12 12 12 12 12 12 12 11 11 11 11 11 11 11 11 11 11
12 13 13 13 13 13 13 13 13 13 13 13 12 13 13 12 12 12 12 12 12 12 12 12 12 12 12 11 11 11 11 11 11 11 10 10 10 10
12 12 12 12 13 13 13 13 13 13 13 12 12 12 13 13 12 12 12 12 12 12 12 12 12 12 12 11 11 11 10 10 10 10 10 10 10 10
11 11 12 12 12 12 12 13 13 12 12 12 12 12 12 12 12 12 12 11 11 11 11 11 11 11 11 11 11 11 10 10 10 9 9 9 9 9
10 10 11 11 11 11 12 12 12 12 12 12 12 12 12 12 12 11 11 11 11 11 11 11 11 11 11 11 10 10 10 10 9 9 9 9 9 9
9 9 10 10 10 10 11 11 11 11 12 12 12 11 11 11 11 11 11 11 11 11 11 11 10 10 10 10 10 10 9 9 9 9 9 9 9 8
8 9 9 9 9 10 10 10 11 11 11 11 11 11 11 11 11 11 11 11 10 10 10 10 10 10 10 9 9 9 9 9 9 8 8 8 8 8
8 8 8 8 9 9 9 9 10 10 10 10 10 10 11 11 11 11 11 11 10 10 10 10 10 10 10 10 9 9 9 8 8 8 8 8 8 7
7 7 7 8 8 8 8 9 9 9 10 10 10 10 10 10 10 10 10 10 10 10 10 10 10 9 9 9 8 8 8 8 8 8 7 7 7 7
7 7 7 7 7 8 8 8 8 9 9 9 10 10 10 10 10 10 10 10 10 10 9 9 9 9 8 8 8 8 8 7 7 7 7 7 6 6
6 6 6 7 7 7 7 8 8 8 8 9 9 9 9 10 10 10 10 10 9 9 9 9 8 8 8 8 8 7 7 7 7 6 6 6 6 6
Wind_Speed
3 4 2 2 1 1 1 1 1 1 1 1 1 1 2 4 5 5 7 8 8 8 8 8 8 7 8 9 9 8 8 9 10 10 10 10 10 11
1 2 2 2 1 1 1 1 1 1 1 1 1 1 1 3 5 5 7 9 8 8 8 8 8 8 8 8 8 8 7 7 7 8 8 9 9 8
2 1 0 1 1 1 1 1 1 1 1 1 1 2 2 2 3 4 7 7 7 8 8 9 9 8 8 8 8 8 8 7 7 6 6 7 7 7
3 1 1 1 0 1 1 1 1 0 2 1 1 1 2 2 3 2 3 5 7 8 9 9 9 9 8 8 7 8 8 7 7 6 6 6 6 6
3 2 2 1 1 1 1 1 1 0 1 2 1 1 1 2 2 1 2 2 5 7 9 9 9 9 9 8 8 8 7 7 7 6 6 5 5 5
4 3 3 1 1 1 1 1 1 0 1 2 2 1 1 2 2 2 1 1 2 4 5 7 9 9 9 9 8 9 9 8 8 7 6 5 4 4
4 4 4 4 4 2 1 1 0 0 1 2 2 2 2 2 2 3 3 2 1 2 3 4 5 5 6 8 8 9 9 8 8 7 6 5 4 4
5 4 5 6 7 6 5 4 3 2 1 2 2 3 3 3 3 3 3 3 2 1 3 3 4 4 4 7 9 9 9 8 8 7 6 5 4 3
6 4 4 5 7 7 8 7 5 5 5 3 2 3 4 4 4 3 3 3 3 3 3 2 2 4 5 9 11 10 9 9 9 7 6 5 4 3
7 6 5 5 6 7 7 7 7 6 7 5 4 3 2 3 5 5 4 3 1 1 3 3 3 3 4 7 12 12 11 10 9 8 6 4 3 2
8 8 7 6 8 8 6 6 6 6 8 9 8 6 5 5 4 3 4 3 2 2 2 3 3 3 3 3 8 11 11 10 9 7 6 3 2 2
7 7 10 9 9 10 7 6 7 6 6 7 6 6 5 6 6 5 5 4 3 3 4 4 3 3 3 3 4 8 9 8 9 8 7 4 2 1
6 6 6 9 10 11 10 7 8 7 6 7 7 6 5 5 5 4 4 4 4 4 4 4 4 3 3 3 3 5 6 5 6 6 7 6 4 3
7 6 6 8 10 11 10 10 11 8 5 5 5 6 7 7 6 7 5 5 4 4 5 5 3 4 4 3 3 4 4 5 5 4 6 6 5 4
8 10 10 10 9 9 12 13 10 6 6 6 7 7 7 7 7 6 6 5 4 3 4 4 4 3 4 4 3 3 3 3 3 3 3 3 3 2
8 10 11 12 10 9 9 9 8 7 8 8 7 6 6 6 6 6 5 5 4 2 2 4 5 5 3 3 4 3 3 4 3 3 3 2 2 2
9 7 7 6 6 6 6 7 7 8 9 8 8 7 7 7 6 5 5 5 5 5 4 3 3 4 4 4 3 4 3 3 3 3 3 1 2 2
9 7 8 8 8 8 8 8 8 9 9 9 8 8 8 8 7 6 6 6 6 6 6 5 4 3 1 1 2 4 4 3 3 3 3 2 2 2
8 8 8 8 8 8 8 8 9 9 9 9 9 9 8 8 8 8 8 7 7 7 6 6 6 6 6 5 3 3 5 3 3 2 2 3 3 3
7 8 9 8 8 8 7 7 8 8 8 8 8 8 9 9 9 9 9 9 8 7 7 6 7 8 8 7 4 3 5 5 4 3 2 1 1 2
8 8 8 8 7 7 7 7 7 8 8 8 8 9 9 8 9 10 10 12 9 8 9 9 8 10 5 4 4 2 2 4 5 4 4 2 1 1
8 8 8 8 7 7 7 7 7 8 8 8 8 8 9 8 9 10 10 10 9 9 8 6 7 7 5 5 5 4 3 2 2 3 5 7 5 4
8 8 8 8 7 7 7 8 9 8 8 8 8 8 9 8 8 8 9 10 8 8 7 7 6 5 5 5 5 4 5 4 3 2 2 7 11 11
Wind_Direction
351 347 346 328 14 46 57 126 139 156 215 180 142 166 146 138 151 157 156 172 176 178 180 177 172 169 171 173 177 185 191 196 194 194 199 205 212 216
248 287 326 343 346 9 330 350 127 164 192 185 174 163 140 151 162 161 162 164 170 174 177 178 174 169 165 167 171 172 173 176 180 187 197 206 212 216
286 252 214 22 353 359 9 6 358 88 146 178 141 147 135 128 142 152 157 159 168 174 172 172 173 172 171 172 175 177 177 176 179 185 194 204 206 208
288 304 272 156 69 7 13 343 340 104 134 168 171 153 158 148 144 153 155 156 157 171 174 176 174 172 171 170 173 174 175 179 181 184 186 192 198 200
234 248 257 206 190 189 194 305 310 59 130 155 174 158 151 138 124 124 112 120 149 161 169 173 173 172 169 167 164 164 165 165 167 170 170 167 167 174
224 218 212 203 188 199 193 243 274 126 165 158 163 175 161 155 140 157 144 147 154 150 149 160 165 166 167 166 164 162 159 154 152 154 156 159 161 165
244 217 189 169 152 149 138 117 51 136 184 174 185 189 191 167 181 182 167 168 172 144 142 152 148 149 162 166 161 160 158 155 153 152 150 154 159 162
265 235 200 185 184 181 175 174 163 172 209 207 197 198 203 186 178 176 165 159 193 207 153 170 155 155 154 148 150 151 153 155 155 153 154 157 163 170
277 265 247 212 190 189 197 202 206 212 207 205 217 222 201 188 174 176 175 172 187 191 145 165 151 139 138 146 150 150 150 150 148 148 149 150 155 160
267 260 246 231 211 198 193 195 205 212 215 210 214 239 224 182 170 176 177 158 141 161 139 165 172 152 136 142 155 153 152 151 150 149 149 151 164 194
254 254 242 230 220 209 203 205 205 213 208 193 186 181 169 160 154 141 151 148 181 215 186 167 170 147 140 146 164 165 161 161 160 159 160 163 187 242
255 254 245 234 223 210 206 213 217 215 196 188 189 189 188 185 183 179 174 175 186 204 203 173 172 151 152 161 162 173 173 178 180 179 177 175 170 117
268 261 250 237 228 217 212 216 220 213 203 193 192 195 196 195 195 197 193 188 193 207 192 168 171 164 157 155 166 180 178 173 181 191 191 186 173 157
283 278 273 258 240 228 222 225 223 216 210 202 199 200 200 200 196 195 195 193 184 187 178 161 163 166 157 154 173 173 177 172 170 171 186 200 203 203
290 288 289 284 264 243 231 226 221 215 209 212 212 211 205 196 188 187 189 179 164 160 157 146 148 151 148 163 169 164 169 183 164 153 155 163 191 198
298 298 291 273 255 244 238 228 221 214 210 215 213 209 197 191 187 180 179 173 167 186 168 150 141 150 159 165 159 168 162 173 171 157 149 159 192 206
302 293 284 273 251 246 239 224 215 214 219 216 212 208 201 195 193 182 174 173 178 183 184 176 137 130 147 154 162 176 172 174 171 156 138 163 238 241
296 283 272 262 255 244 240 233 223 219 219 218 214 208 203 198 192 184 179 182 188 187 183 173 153 130 101 320 185 175 175 175 164 148 140 161 243 268
283 274 270 264 259 253 246 240 234 225 217 220 219 212 203 196 190 189 189 188 192 189 183 173 168 168 184 210 239 197 171 169 153 151 166 174 208 234
266 268 270 267 266 262 255 251 245 233 223 220 220 215 207 199 193 192 194 193 192 187 181 178 181 184 192 192 187 209 194 165 159 169 183 177 236 264
275 272 268 267 267 266 263 256 253 248 232 221 221 218 210 204 200 196 194 194 191 188 190 192 189 172 153 129 131 163 205 198 170 166 163 150 229 278
281 278 275 272 269 267 263 261 257 256 244 229 221 220 212 204 200 197 194 191 195 192 186 173 159 153 152 166 173 174 176 185 216 191 182 180 171 197
280 283 278 274 269 264 261 258 257 256 249 236 224 218 211 205 199 195 196 190 184 179 165 158 158 157 162 165 168 169 169 171 168 175 262 238 228 234
Height
1511 1510 1510 1509 1509 1509 1509 1510 1510 1510 1510 1511 1512 1512 1513 1514 1515 1517 1518 1520 1522 1524 1525 1527 1529 1531 1533 1535 1538 1540 1542 1544 1546 1549 1551 1553 1554 1556
1511 1510 1510 1509 1509 1509 1509 1509 1509 1510 1510 1510 1511 1511 1513 1513 1514 1515 1517 1519 1520 1522 1523 1525 1527 1528 1530 1533 1535 1537 1539 1542 1544 1546 1548 1550 1551 1553
1511 1510 1509 1509 1508 1508 1508 1508 1508 1508 1508 1509 1510 1510 1511 1512 1513 1514 1515 1517 1518 1520 1521 1523 1525 1526 1528 1530 1532 1534 1536 1538 1540 1543 1544 1546 1548 1549
1510 1510 1509 1509 1508 1507 1507 1507 1507 1507 1508 1508 1508 1509 1510 1511 1512 1513 1514 1515 1516 1517 1519 1521 1522 1524 1526 1527 1529 1531 1533 1535 1537 1539 1541 1543 1544 1546
1509 1509 1508 1508 1507 1507 1506 1506 1506 1506 1506 1506 1507 1508 1509 1510 1510 1511 1512 1513 1514 1515 1517 1518 1520 1522 1523 1525 1527 1528 1530 1532 1534 1536 1537 1539 1540 1542
1508 1508 1507 1507 1506 1506 1505 1505 1504 1504 1505 1505 1505 1506 1507 1508 1509 1510 1511 1512 1513 1514 1515 1516 1517 1519 1521 1522 1524 1526 1527 1529 1531 1532 1534 1535 1537 1538
1506 1506 1505 1505 1504 1504 1504 1503 1503 1503 1503 1503 1504 1505 1505 1506 1507 1508 1509 1510 1511 1512 1513 1514 1515 1517 1518 1520 1521 1523 1524 1526 1528 1529 1530 1532 1533 1534
1503 1503 1502 1502 1502 1502 1502 1501 1501 1501 1501 1501 1502 1502 1503 1504 1505 1506 1507 1508 1509 1510 1511 1512 1513 1514 1515 1517 1518 1520 1521 1523 1524 1526 1527 1528 1530 1530
1499 1500 1499 1499 1499 1498 1498 1498 1498 1498 1499 1499 1499 1500 1500 1501 1502 1503 1504 1505 1506 1508 1509 1510 1511 1512 1514 1515 1516 1517 1519 1520 1521 1522 1524 1525 1526 1527
1495 1495 1495 1495 1495 1495 1495 1495 1495 1495 1496 1496 1497 1497 1498 1498 1499 1500 1501 1503 1504 1505 1506 1508 1509 1510 1511 1513 1514 1515 1516 1517 1518 1519 1521 1522 1523 1523
1490 1490 1491 1491 1491 1491 1491 1491 1491 1491 1492 1493 1493 1494 1495 1496 1497 1498 1498 1499 1501 1502 1504 1505 1506 1508 1509 1510 1511 1513 1514 1515 1516 1517 1517 1518 1519 1520
1484 1485 1486 1486 1486 1486 1486 1486 1487 1487 1488 1489 1489 1490 1491 1492 1493 1494 1495 1496 1497 1499 1500 1502 1503 1505 1506 1507 1509 1510 1511 1512 1513 1513 1514 1515 1515 1516
1479 1479 1479 1480 1480 1480 1481 1481 1481 1483 1483 1484 1485 1485 1486 1487 1488 1490 1491 1492 1493 1494 1496 1498 1499 1501 1502 1503 1505 1506 1507 1508 1509 1510 1510 1511 1511 1512
1473 1473 1473 1474 1474 1474 1474 1475 1476 1477 1478 1478 1479 1480 1481 1482 1483 1485 1486 1488 1489 1491 1492 1494 1495 1497 1498 1500 1501 1502 1504 1505 1505 1506 1507 1507 1507 1508
1467 1466 1466 1466 1466 1466 1467 1468 1469 1470 1471 1471 1472 1473 1475 1477 1478 1480 1481 1483 1484 1486 1488 1489 1491 1492 1494 1496 1497 1498 1499 1500 1501 1502 1503 1503 1504 1504
1460 1459 1458 1458 1458 1458 1459 1460 1461 1462 1463 1464 1465 1467 1469 1471 1472 1474 1476 1477 1479 1480 1483 1484 1486 1488 1490 1491 1493 1494 1495 1496 1497 1498 1499 1499 1500 1500
1453 1451 1450 1450 1449 1450 1451 1451 1452 1454 1455 1456 1458 1460 1462 1464 1466 1468 1469 1471 1473 1475 1477 1479 1481 1483 1485 1486 1487 1489 1490 1492 1493 1493 1494 1495 1495 1495
1448 1445 1444 1443 1442 1442 1443 1443 1444 1445 1446 1448 1450 1452 1454 1456 1458 1460 1462 1464 1466 1468 1471 1473 1475 1477 1479 1481 1483 1483 1485 1487 1488 1489 1490 1490 1491 1491
1441 1439 1437 1437 1436 1435 1435 1436 1436 1437 1438 1439 1441 1443 1445 1448 1450 1452 1454 1457 1459 1462 1464 1467 1469 1471 1472 1474 1476 1478 1480 1481 1483 1484 1485 1485 1486 1486
1436 1433 1431 1430 1429 1429 1428 1428 1428 1429 1430 1431 1432 1434 1437 1439 1442 1444 1446 1449 1452 1455 1457 1459 1461 1463 1466 1468 1471 1473 1475 1476 1478 1479 1480 1480 1481 1482
1430 1428 1426 1424 1423 1422 1421 1420 1420 1420 1421 1422 1424 1425 1428 1431 1433 1435 1438 1441 1444 1447 1449 1452 1454 1458 1462 1465 1466 1467 1470 1472 1473 1474 1475 1476 1476 1476
1424 1422 1420 1418 1416 1415 1413 1412 1411 1411 1412 1414 1414 1416 1418 1422 1424 1427 1430 1433 1436 1439 1442 1446 1450 1453 1456 1458 1460 1462 1464 1467 1468 1469 1470 1471 1470 1470
1417 1415 1413 1411 1409 1407 1406 1404 1403 1403 1403 1404 1406 1407 1410 1412 1415 1419 1422 1425 1429 1432 1435 1439 1443 1446 1449 1452 1455 1457 1459 1461 1463 1464 1465 1466 1466 1466